Location: Unspecified
(0.0000°N, 0.0000°E)
Time: 04:43:50
(UTC+00:00)

Tianhe-1 - Pass Details

Date: 08 May 2021
Orbit: 360 x 384 km, 41.5° (Epoch: 18 May)

Event Time Altitude Azimuth Distance (km) Brightness Sun altitude
Rises 19:00:45 0° 205° (SSW) 2,217 5.0 -15.3°
Reaches altitude 10° 19:03:08 10° 187° (S) 1,372 3.7 -15.9°
Enters shadow 19:03:48 14° 178° (S) 1,180 3.3 -16.0°
